| time (UTC) | temp C | wind direction | speed KPH | gust KPH | rain 1hr cm | rain 24hr cm | rain mn cm | humidity % | barometer mb |
| 20260502162015 | 24 | 192 | 3.2 | 3.2 | 0.00 | 0.00 | 0.00 | 14 | 1023.2 |
| 20260502160512 | 24 | 156 | 0.0 | 0.0 | 0.00 | 0.00 | 0.00 | 16 | 1023.5 |
| 20260502152004 | 22 | 158 | 0.0 | 0.0 | 0.00 | 0.00 | 0.00 | 17 | 1022.8 |
| 20260502150501 | 22 | 215 | 0.0 | 0.0 | 0.00 | 0.00 | 0.00 | 16 | 1023.2 |
| 20260502130433 | 16 | 313 | 0.0 | 0.0 | 0.00 | 0.00 | 0.00 | 19 | 1022.0 |
| 20260502123428 | 17 | 296 | 0.0 | 0.0 | 0.00 | 0.00 | 0.00 | 18 | 1021.7 |
| 20260502121925 | 18 | 294 | 0.0 | 0.0 | 0.00 | 0.00 | 0.00 | 17 | 1021.7 |
| 20260502120421 | 18 | 344 | 0.0 | 0.0 | 0.00 | 0.00 | 0.00 | 16 | 1021.7 |
| 20260502114917 | 19 | 197 | 0.0 | 0.0 | 0.00 | 0.00 | 0.00 | 16 | 1021.4 |
| 20260502113415 | 20 | 254 | 0.0 | 0.0 | 0.00 | 0.00 | 0.00 | 15 | 1021.7 |
| 20260502111914 | 21 | 144 | 0.0 | 0.0 | 0.00 | 0.00 | 0.00 | 15 | 1021.4 |
| 20260502110411 | 21 | 204 | 0.0 | 0.0 | 0.00 | 0.00 | 0.00 | 14 | 1021.4 |
| 20260502104909 | 21 | 258 | 0.0 | 0.0 | 0.00 | 0.00 | 0.00 | 14 | 1021.4 |
| 20260502103407 | 20 | 156 | 0.0 | 0.0 | 0.00 | 0.00 | 0.00 | 15 | 1021.4 |
| 20260502101903 | 20 | 156 | 0.0 | 0.0 | 0.00 | 0.00 | 0.00 | 14 | 1021.4 |
| 20260502100359 | 21 | 132 | 0.0 | 0.0 | 0.00 | 0.00 | 0.00 | 13 | 1021.0 |
| 20260502090349 | 21 | 198 | 0.0 | 0.0 | 0.00 | 0.00 | 0.00 | 13 | 1021.4 |
| 20260502070338 | 22 | 198 | 0.0 | 0.0 | 0.00 | 0.00 | 0.00 | 12 | 1021.4 |
| 20260502064838 | 22 | 204 | 0.0 | 0.0 | 0.00 | 0.00 | 0.00 | 12 | 1021.0 |
| 20260502063336 | 22 | 180 | 0.0 | 0.0 | 0.00 | 0.00 | 0.00 | 12 | 1021.0 |
| 20260502061836 | 22 | 192 | 0.0 | 0.0 | 0.00 | 0.00 | 0.00 | 11 | 1020.6 |
| 20260502060335 | 23 | 150 | 0.0 | 0.0 | 0.00 | 0.00 | 0.00 | 11 | 1020.6 |
| 20260502054830 | 23 | 210 | 0.0 | 0.0 | 0.00 | 0.00 | 0.00 | 11 | 1020.6 |
| 20260502053328 | 23 | 196 | 0.0 | 0.0 | 0.00 | 0.00 | 0.00 | 11 | 1020.6 |
| 20260502051827 | 23 | 156 | 0.0 | 0.0 | 0.00 | 0.00 | 0.00 | 11 | 1020.2 |
| 20260502050323 | 23 | 181 | 0.0 | 0.0 | 0.00 | 0.00 | 0.00 | 12 | 1020.6 |
| 20260502044820 | 24 | 81 | 0.0 | 0.0 | 0.00 | 0.00 | 0.00 | 12 | 1020.2 |
| 20260502043317 | 25 | 207 | 0.0 | 0.0 | 0.00 | 0.00 | 0.00 | 11 | 1019.9 |
| 20260502041817 | 25 | 226 | 0.0 | 0.0 | 0.00 | 0.00 | 0.00 | 11 | 1019.9 |
| 20260502040314 | 25 | 246 | 0.0 | 0.0 | 0.00 | 0.00 | 0.00 | 11 | 1019.6 |
| 20260502034810 | 25 | 216 | 0.0 | 0.0 | 0.00 | 0.00 | 0.00 | 11 | 1019.6 |
| 20260502033309 | 25 | 241 | 0.0 | 0.0 | 0.00 | 0.00 | 0.00 | 11 | 1018.8 |
| 20260502031806 | 26 | 216 | 0.0 | 0.0 | 0.00 | 0.00 | 0.00 | 11 | 1018.4 |
| 20260502030306 | 26 | 210 | 0.0 | 0.0 | 0.00 | 0.00 | 0.00 | 10 | 1018.8 |
| 20260502024804 | 26 | 204 | 0.0 | 0.0 | 0.00 | 0.00 | 0.00 | 10 | 1018.4 |
| 20260502023303 | 27 | 229 | 0.0 | 0.0 | 0.00 | 0.00 | 0.00 | 10 | 1018.4 |
| 20260502021759 | 27 | 193 | 0.0 | 0.0 | 0.00 | 0.00 | 0.00 | 10 | 1018.1 |
| 20260502020257 | 28 | 192 | 0.0 | 0.0 | 0.00 | 0.00 | 0.00 | 10 | 1018.1 |
| 20260502014754 | 28 | 215 | 0.0 | 0.0 | 0.00 | 0.00 | 0.00 | 10 | 1018.1 |
| 20260502013254 | 28 | 167 | 1.6 | 1.6 | 0.00 | 0.00 | 0.00 | 9 | 1017.8 |
| 20260502011752 | 29 | 66 | 3.2 | 3.2 | 0.00 | 0.00 | 0.00 | 9 | 1017.8 |
| 20260502010247 | 28 | 107 | 4.8 | 6.4 | 0.00 | 0.00 | 0.00 | 9 | 1017.8 |
| 20260502004745 | 29 | 107 | 0.0 | 0.0 | 0.00 | 0.00 | 0.00 | 10 | 1018.1 |
| 20260502003242 | 28 | 185 | 0.0 | 0.0 | 0.00 | 0.00 | 0.00 | 9 | 1017.8 |
| 20260502001738 | 29 | 90 | 0.0 | 0.0 | 0.00 | 0.00 | 0.00 | 9 | 1017.8 |
| 20260502000238 | 30 | 75 | 6.4 | 6.4 | 0.00 | 0.00 | 0.00 | 9 | 1018.1 |
| 20260501234736 | 29 | 83 | 0.0 | 0.0 | 0.00 | 0.00 | 0.00 | 10 | 1018.1 |
| 20260501233235 | 30 | 134 | 0.0 | 0.0 | 0.00 | 0.00 | 0.00 | 9 | 1018.4 |
| 20260501231730 | 28 | 88 | 0.0 | 0.0 | 0.00 | 0.00 | 0.00 | 11 | 1018.1 |
| 20260501230225 | 29 | 77 | 3.2 | 3.2 | 0.00 | 0.00 | 0.00 | 11 | 1018.1 |
| 20260501224721 | 28 | 117 | 0.0 | 0.0 | 0.00 | 0.00 | 0.00 | 12 | 1018.4 |
| 20260501223217 | 29 | 69 | 6.4 | 6.4 | 0.00 | 0.00 | 0.00 | 11 | 1018.8 |
| 20260501221713 | 29 | 96 | 3.2 | 3.2 | 0.00 | 0.00 | 0.00 | 11 | 1019.1 |
| 20260501220211 | 28 | 78 | 3.2 | 3.2 | 0.00 | 0.00 | 0.00 | 11 | 1019.1 |
| 20260501214710 | 29 | 78 | 0.0 | 0.0 | 0.00 | 0.00 | 0.00 | 11 | 1019.1 |
| 20260501213205 | 28 | 174 | 0.0 | 0.0 | 0.00 | 0.00 | 0.00 | 12 | 1019.1 |
| 20260501211701 | 28 | 137 | 3.2 | 3.2 | 0.00 | 0.00 | 0.00 | 12 | 1019.9 |
| 20260501210157 | 28 | 76 | 0.0 | 0.0 | 0.00 | 0.00 | 0.00 | 11 | 1019.9 |
| 20260501204654 | 27 | 239 | 0.0 | 0.0 | 0.00 | 0.00 | 0.00 | 12 | 1020.2 |
| 20260501203150 | 27 | 222 | 0.0 | 0.0 | 0.00 | 0.00 | 0.00 | 13 | 1019.9 |
| 20260501201646 | 28 | 282 | 0.0 | 0.0 | 0.00 | 0.00 | 0.00 | 12 | 1020.2 |
| 20260501200143 | 27 | 198 | 0.0 | 0.0 | 0.00 | 0.00 | 0.00 | 12 | 1020.2 |
| 20260501194642 | 26 | 239 | 0.0 | 0.0 | 0.00 | 0.00 | 0.00 | 13 | 1020.6 |
| 20260501193140 | 27 | 308 | 0.0 | 0.0 | 0.00 | 0.00 | 0.00 | 12 | 1020.6 |
| 20260501191637 | 27 | 81 | 0.0 | 0.0 | 0.00 | 0.00 | 0.00 | 13 | 1021.0 |
| 20260501190137 | 26 | 249 | 0.0 | 0.0 | 0.00 | 0.00 | 0.00 | 14 | 1021.0 |
| 20260501184632 | 27 | 305 | 0.0 | 0.0 | 0.00 | 0.00 | 0.00 | 14 | 1021.4 |
| 20260501183132 | 26 | 235 | 0.0 | 0.0 | 0.00 | 0.00 | 0.00 | 14 | 1021.4 |
| 20260501181628 | 27 | 106 | 0.0 | 0.0 | 0.00 | 0.00 | 0.00 | 13 | 1021.7 |
| 20260501180125 | 26 | 234 | 0.0 | 0.0 | 0.00 | 0.00 | 0.00 | 14 | 1021.4 |
| 20260501174621 | 26 | 275 | 0.0 | 0.0 | 0.00 | 0.00 | 0.00 | 14 | 1021.7 |
| 20260501173119 | 26 | 198 | 0.0 | 0.0 | 0.00 | 0.00 | 0.00 | 14 | 1021.7 |
| 20260501171618 | 25 | 204 | 1.6 | 1.6 | 0.00 | 0.00 | 0.00 | 15 | 1021.7 |
| 20260501170115 | 25 | 282 | 0.0 | 0.0 | 0.00 | 0.00 | 0.00 | 15 | 1021.7 |
| 20260501164613 | 25 | 180 | 0.0 | 0.0 | 0.00 | 0.00 | 0.00 | 15 | 1021.7 |